This is the latest recevied weather packets stored in our database for station/object KE5VT. If no packets are shown the sender has not sent any weather packets the latest 10 day(s).
| Time | Temp. | Humidity | Pressure | Rain* | Wind** | Luminosity | Snow |
|---|---|---|---|---|---|---|---|
| 1777408272 | 17.78° C | 83% | 1014.6 hPa | 0 mm | - | 97 W/m² | - |
| 1777407972 | 17.22° C | 83% | 1014.8 hPa | 0 mm | - | 135 W/m² | - |
| 1777407669 | 17.22° C | 83% | 1014.7 hPa | 0 mm | - | 138 W/m² | - |
| 1777407364 | 17.22° C | 83% | 1015 hPa | 0 mm | - | 158 W/m² | - |
| 1777407059 | 17.22° C | 84% | 1015 hPa | 0 mm | - | 181 W/m² | - |
| 1777406755 | 17.78° C | 83% | 1014.9 hPa | 0 mm | - | 181 W/m² | - |
| 1777406450 | 17.22° C | 84% | 1015.1 hPa | 0 mm | - | 132 W/m² | - |
| 1777406150 | 17.22° C | 83% | 1015.4 hPa | 0 mm | - | 164 W/m² | - |
| 1777405845 | 17.22° C | 84% | 1015.6 hPa | 0 mm | - | 181 W/m² | - |
| 1777405542 | 17.22° C | 85% | 1015.7 hPa | 0 mm | - | 125 W/m² | - |
| 1777405239 | 17.22° C | 84% | 1015.6 hPa | 0 mm | - | 138 W/m² | - |
| 1777404938 | 17.22° C | 84% | 1015.9 hPa | 0 mm | - | 249 W/m² | - |
| 1777404634 | 16.67° C | 84% | 1015.9 hPa | 0 mm | - | 219 W/m² | - |
| 1777404330 | 16.67° C | 85% | 1016 hPa | 0 mm | - | 210 W/m² | - |
| 1777404027 | 16.67° C | 85% | 1016 hPa | 0 mm | - | 389 W/m² | - |
| 1777403722 | 16.11° C | 86% | 1016.3 hPa | 0 mm | - | 289 W/m² | - |
| 1777403421 | 16.11° C | 87% | 1016.5 hPa | 0 mm | - | 255 W/m² | - |
| 1777403115 | 15.56° C | 88% | 1016.6 hPa | 0 mm | - | 191 W/m² | - |
| 1777402812 | 16.11° C | 87% | 1016.6 hPa | 0 mm | - | 113 W/m² | - |
| 1777402509 | 15.56° C | 87% | 1016.7 hPa | 0 mm | - | 144 W/m² | - |
| 1777402206 | 16.11° C | 86% | 1016.7 hPa | 0 mm | - | 131 W/m² | - |
| 1777401906 | 16.11° C | 86% | 1016.5 hPa | 0 mm | - | 200 W/m² | - |
| 1777401605 | 16.11° C | 86% | 1016.2 hPa | 0 mm | - | 252 W/m² | - |
| 1777401302 | 16.11° C | 87% | 1016.6 hPa | 0 mm | - | 259 W/m² | - |
| 1777400996 | 16.11° C | 88% | 1016.8 hPa | 0 mm | - | 135 W/m² | - |
* Rain latest hour (hover to see other rain measurements)
** Current wind speed in m/s (hover to see current wind gust speed)